Location: Acequia del Cap
(41.7000°N, 0.6167°E)
Time: 23:34:33
(UTC+00:00)

ERS-2 - Pass Details

Date: 07 August 2020
Orbit: 494 x 498 km, 98.6° (Epoch: 22 September)

Event Time Altitude Azimuth Distance (km) Brightness Sun altitude
Rises 03:29:08 0° 159° (SSE) 2,563 5.6 -15.1°
Reaches altitude 10° 03:31:12 10° 156° (SSE) 1,686 4.6 -14.8°
Maximum altitude 03:34:47 66° 74° (ENE) 544 2.5 -14.2°
Drops below altitude 10° 03:38:25 10° 352° (N) 1,703 5.2 -13.7°
Sets 03:40:31 0° 350° (N) 2,591 6.1 -13.4°
